www.pogodaiklimat.ru

Погода и климат >> Архив погоды >> Россия >> Ярославская область >> Рыбинск


АРХИВ ПОГОДЫ в Рыбинске

Время (UTC), дата Ветер
(напр.,м/с)
 
Видим.   Явления Облачность Т
(С)
Тd
(С)
f
(%)
Тe
(С)
Тes
(С)
Комфортность P
(гПа)
Po
(гПа)
Тmin
(С)
Tmax
(С)
R
(мм)
R24
(мм)
S
(см)
21 14.01 С 2 10 км {снег} 10/0
[As op]
-5.5 -6.2 95 -10 -10 по сезону 1040.9 1027.0
00 15.01 С 2 11 км {снег} 10/0 2000 м
[As op]
-5.4 -6.2 94 -10 -10 по сезону 1040.3 1026.5
03 15.01 СЗ 1 11 км 10/0
[As op]
-5.7 -6.2 96 -8 -8 по сезону 1039.6 1025.7 -5.7 0.0 8
06 15.01 штиль 0 9000 м слабый снег 10/0 2000 м
[As op]
-6.0 -6.7 95 -7 -7 по сезону 1039.2 1025.4 -6.1
09 15.01 штиль 0 9000 м слабый снег 10/0
[As op]
-5.2 -5.7 96 -6 -6 тепло 1038.9 1025.0
12 15.01 штиль 0 9000 м слабый снег 10/0
[As op]
-4.7 -5.4 95 -6 -6 по сезону 1037.6 1023.7
15 15.01 ЮВ 1 9000 м слабый снег 10/0
[As op]
-4.8 -5.5 95 -7 -7 по сезону 1036.3 1022.4 -4.6 0.4
18 15.01 ЮВ 1 9000 м слабый снег 10/0
[As op]
-4.0 -4.8 94 -6 -6 тепло 1035.3 1021.5
21 15.01 ЮВ 2 9000 м слабый снег 10/0
[As op]
-3.9 -4.6 95 -8 -8 по сезону 1034.3 1020.5
00 16.01 ЮВ 2 10 км {снег} 10/0
[As op]
-4.1 -5.2 92 -8 -8 по сезону 1033.5 1019.7
03 16.01 Ю 3 11 км 10/0
[As op]
-4.6 -6.3 88 -10 -10 по сезону 1031.8 1018.1 -4.8 0.2 8
06 16.01 Ю 2 12 км 10/0 2000 м
[As op]
-5.3 -7.6 84 -10 -10 по сезону 1031.2 1017.4 -5.2
09 16.01 штиль 0 50 км ?/? -5.8 -8.3 82 -7 -7 по сезону 1031.0 1017.2
12 16.01 ЮВ 2 12 км 10/0 2000 м
[As op]
-5.5 -7.7 84 -10 -10 по сезону 1029.4 1015.7
15 16.01 ЮВ 4 10 км 10/0
[As op]
-6.5 -8.5 86 -13 -13 по сезону 1028.3 1014.6 -4.6
18 16.01 ЮВ 3 11 км 10/0 2000 м
[As op]
-5.9 -7.8 86 -12 -12 по сезону 1026.5 1012.8
21 16.01 ЮВ 2 11 км 6/6 300 м
[Sc]
-7.7 -9.9 84 -12 -12 по сезону 1025.6 1011.7
00 17.01 ЮВ 4 9000 м слабый снег 10/0 2000 м
[As op]
-7.6 -10.5 80 -14 -14 по сезону 1023.8 1010.1
03 17.01 ЮВ 4 9000 м слабый снег 10/0
[As op]
-8.1 -10.2 85 -15 -15 по сезону 1022.0 1008.1 -8.1
06 17.01 ЮВ 3 11 км {снег} 10/0 2000 м
[As op]
-8.0 -9.8 87 -14 -14 по сезону 1020.0 1006.3 -8.2
09 17.01 ЮВ 4 12 км в посл. час снег 10/0
[As op]
-7.3 -10.0 81 -14 -14 по сезону 1019.4 1005.7
12 17.01 ЮВ 4 12 км {снег} 10/0 2000 м
[As op]
-6.3 -9.7 77 -13 -13 по сезону 1017.5 1003.9
15 17.01 ЮВ 5
{10}
11 км 10/0
[As op]
-7.5 -10.2 81 -15 -15 по сезону 1016.7 1003.1 -6.3 0.0
18 17.01 ЮВ 2 12 км 10/0 2000 м
[As op]
-9.5 -11.3 87 -14 -14 по сезону 1016.3 1002.6
21 17.01 В 4 10 км 10/0
[As op]
-8.8 -10.8 85 -16 -16 по сезону 1015.3 1001.5
00 18.01 ЮВ 4
{11}
10 км 10/0
[As op]
-10.7 -13.0 83 -18 -18 прохладно 1014.0 1000.2
03 18.01 ЮВ 4
{11}
8000 м слабый снег 10/0
[As op]
-10.2 -12.5 83 -17 -17 прохладно 1012.5 998.8 -10.8 0.3 8
06 18.01 ЮВ 4 500 м сильный снег 10/10 300 м
[Frnb Ns]
-10.1 -11.4 90 -17 -17 прохладно 1012.0 998.3
09 18.01 ЮВ 4
{10}
10 км {снег} 10/0
[As op]
-9.3 -11.4 85 -16 -16 прохладно 1011.9 998.2
12 18.01 ЮВ 3 500 м сильный снег 10/10 300 м
[Frnb Ns]
-9.0 -10.6 88 -15 -15 по сезону 1011.6 998.0
15 18.01 ЮВ 2 7000 м слабый снег 10/10 300 м
[Frnb Ns]
-8.2 -9.4 91 -13 -13 по сезону 1011.5 997.9 -8.2 3
18 18.01 ЮВ 3 6000 м слабый снег 10/10 300 м
[Frnb Ns]
-7.0 -8.7 88 -13 -13 по сезону 1011.9 998.3
21 18.01 ЮВ 2 3800 м снег 10/10 300 м
[Frnb Ns]
-6.1 -7.2 92 -11 -11 по сезону 1012.9 999.4
00 19.01 ЮВ 3 9000 м слабый снег 10/0 2000 м
[As op]
-5.2 -7.0 87 -11 -11 по сезону 1013.1 999.6
03 19.01 ЮВ 3 11 км {снег} 10/0
[As op]
-4.8 -7.4 82 -10 -10 по сезону 1013.5 1000.0 -8.2 2 10
06 19.01 ЮВ 3 12 км {снег} 8/8 300 м
[Sc]
-5.3 -8.5 78 -11 -11 по сезону 1014.8 1001.2
09 19.01 ЮВ 4
{10}
13 км 10/10 600 м
[Sc]
-5.1 -11.7 60 -11 -11 по сезону 1016.0 1002.4
12 19.01 ЮВ 4 13 км 10/0
[Ci sp]
-6.8 -13.1 61 -13 -13 по сезону 1017.4 1003.7
15 19.01 ЮВ 5
{10}
12 км 10/0
[Ci sp]
-8.5 -14.4 62 -16 -16 прохладно 1018.1 1004.3 -4.5
18 19.01 ЮВ 5
{10}
12 км 10/0
[Ci sp]
-10.0 -18.3 51 -18 -18 прохладно 1019.0 1005.1
21 19.01 ЮВ 4
{10}
11 км 10/0
[Ci sp]
-11.2 -18.2 56 -18 -18 прохладно 1019.0 1005.0
00 20.01 ЮВ 4 13 км ясно -12.7 -19.0 59 -20 -20 очень
холодно
1019.5 1005.4
03 20.01 ЮВ 4 13 км ясно -14.0 -18.3 70 -22 -22 очень
холодно
1018.4 1004.4 -14.0 10
06 20.01 ЮВ 4
{11}
15 км 4/0
[Ci fib]
-14.6 -17.7 77 -22 -22 очень
холодно
1017.2 1003.2 -14.6
09 20.01 ЮВ 4
{11}
6000 м слабый снег 10/0
[As op]
-13.0 -16.0 78 -20 -20 очень
холодно
1016.9 1003.0
12 20.01 В 4 1000 м сильный снег 10/0 2000 м
[As op]
-12.1 -14.3 84 -19 -19 очень
холодно
1015.6 1001.7
15 20.01 В 4 9000 м слабый снег 10/0
[As op]
-11.0 -12.9 86 -18 -18 холодно 1014.7 1000.9 -11.0 1
18 20.01 ЮВ 4 8000 м слабый снег 10/0 2000 м
[As op]
-10.6 -12.3 87 -18 -18 холодно 1014.0 1000.2
21 20.01 В 3
{10}
8000 м слабый снег 10/0
[As op]
-11.2 -13.2 85 -17 -17 холодно 1013.7 999.9
00 21.01 В 3 3500 м снег 10/10 300 м
[Frnb Ns]
-11.4 -13.0 88 -17 -17 по сезону 1013.2 999.4
03 21.01 В 3 8000 м слабый снег 10/10 300 м
[Frnb Ns]
-11.5 -13.0 89 -17 -17 по сезону 1012.8 999.0 -11.5 2 13
06 21.01 В 3 9000 м слабый снег 10/0 2000 м
[As op]
-11.2 -12.8 88 -17 -17 по сезону 1012.8 999.0
09 21.01 В 2 7000 м 10/0
[As op]
-9.4 -11.2 87 -14 -14 по сезону 1012.9 999.2
12 21.01 В 3 6000 м слабый снег 10/0 2000 м
[As op]
-7.7 -9.3 88 -14 -14 по сезону 1012.5 998.9
15 21.01 В 3 6000 м слабый снег 10/0
[As op]
-7.6 -9.1 89 -13 -13 по сезону 1012.6 999.0 -7.4 2

 

Местоположение метеостанции Рыбинск (Ярославская область, Россия): широта 58.10 долгота 38.68 высота над уровнем моря 105 м.

В архиве по умолчанию представлена погода в Рыбинске за последнюю неделю. Архивные данные за месяц целиком и за предыдущие месяцы, начиная с января 2011 года, Вы можете получить, выбрав интересующий диапазон дат из раскрывающегося списка и нажав кнопку "Ввод!".

Внимание! Время в таблицах - всемирное. Для получения местного времени необходимо прибавить поправку, которая в Рыбинске равна 3 ч.

Смотрите также архив погоды в соседних городах и на ближайших метеорологических станциях:

Погода в Борке (Ярославская область, Россия) (26 км)
Погода в Мышкине (Ярославская область, Россия) (38 км)
Погода в Большом Селе (Ярославская область, Россия) (45 км)
Погода в Пошехонье (Ярославская область, Россия) (50 км)
Погода в Брейтово (Ярославская область, Россия) (53 км)
Погода в Тутаеве (Ярославская область, Россия) (55 км)
Погода в Угличе (Ярославская область, Россия) (70 км)
Погода в Данилове (Ярославская область, Россия) (89 км)
Погода в Ярославле-Музее (Ярославская область, Россия) (89 км)
Погода в Ярославле (Ярославская область, Россия) (89 км)

Пояснения к столбцам:

Ветер - указаны скорость ветра в м/с - средняя за 10 мин, порывы в срок и между сроками (в фигурных скобках) и направление, откуда дует ветер: С - северный, СВ - северо-восточный, В - восточный, ЮВ - юго-восточный, Ю - южный, ЮЗ - юго-западный, З - западный, СЗ - северо-западный.
Видимость - горизонтальная дальность видимости в метрах или километрах. При видимости от 1 до 10 км при отсутствии осадков обычно наблюдается дымка, при ухудшении видимости до 1 км и менее - туман. В сухую погоду видимость может ухудшаться дымом, пылью или мглою.
Явления - указаны атмосферные явления, наблюдавшиеся в срок или в последний час перед сроком; фигурными скобками обозначены явления, наблюдавшиеся между сроками (за 1-3 часа до срока); квадратными скобками обозначены град или гололедные отложения с указанием их диаметра в мм.
Облачность - указаны через наклонную черту общая и нижняя облачность в баллах и высота нижней границы облаков в метрах; квадратными скобками обозначены формы облаков: Ci - перистые, Cs - перисто-слоистые, Cc - перисто-кучевые, Ac - высококучевые, As - высокослоистые, Sc - слоисто-кучевые, Ns - слоисто-дождевые, Cu - кучевые, Cb - кучево-дождевые. Подробнее классификацию облаков см. в Атласе облаков (PDF).
T - Температура воздуха - температура, измеренная на высоте 2 м над землей.
Td - Температура точки росы - температура, при понижении до которой содержащийся в воздухе водяной пар достигнет насыщения.
f - Относительная влажность воздуха - влажноcть воздуха, измеренная на высоте 2 м над землей.
Te - Эффективная температура - температура, которую ощущает одетый по сезону человек в тени. Характеристика душности погоды. При расчете учитывается влияние влажности воздуха и скорости ветра на теплоощущения человека.
Tes - Эффективная температура на солнце - температура, которую ощущает человек, с поправкой на солнечный нагрев. Характеристика знойности погоды. Зависит от высоты солнца над горизонтом, облачности и скорости ветра. Ночью, в пасмурную погоду, а также при ветре 12 м/с и более поправка равна нулю.
P - Атмосферное давление - приведенное к уровню моря атмосферное давление.
Po - Атмосферное давление - измеренное на уровне метеостанции атмосферное давление.
Tmin - Минимальная температура - минимум температуры воздуха на высоте 2 м над землей.
Tmax - Максимальная температура - максимум температуры воздуха на высоте 2 м над землей.
R - Количество осадков - Количество выпавших осадков за период времени, мм. При наведении курсора мыши на число - период времени, за который выпало указанное количество осадков.
R24 - Количество осадков - Количество выпавших осадков за 24 часа, мм.
S - Снежный покров - Высота снежного покрова, см. При наведении курсора мыши на число - состояние снежного покрова и степень покрытия местности в баллах.